KK4OHF Weather Reports


time (UTC)temp
F
wind
direction
speed
knots
gust
knots
rain 1hr
in
rain 24hr
in
rain mn
in
humidity
%
barometer
mb
20260502151506 62 306 1.7 6.1 0.00 0.01 0.01 57 1012.2
20260502150505 62 346 2.6 5.2 0.00 0.01 0.01 57 1012.2
20260502130507 54 21 0.9 2.6 0.00 0.01 0.01 68 1012.2
20260502123005 54 327 0.9 2.6 0.00 0.01 0.01 67 1011.5
20260502122505 54 42 0.0 1.7 0.00 0.01 0.01 66 1011.5
20260502122005 54 294 0.9 2.6 0.00 0.01 0.01 67 1011.5
20260502121505 54 314 0.9 2.6 0.00 0.01 0.01 67 1011.5
20260502121007 54 300 0.9 2.6 0.00 0.01 0.01 67 1011.5
20260502120505 54 275 0.0 0.9 0.00 0.01 0.01 67 1011.5
20260502115006 54 256 0.0 2.6 0.00 0.01 0.01 66 1011.5
20260502113506 54 307 0.9 4.3 0.00 0.01 0.01 65 1011.5
20260502113005 54 326 0.9 1.7 0.00 0.01 0.01 65 1011.5
20260502112506 54 47 0.0 1.7 0.00 0.01 0.01 66 1011.5
20260502111505 54 267 0.9 1.7 0.00 0.01 0.01 65 1011.5
20260502111006 54 22 0.9 1.7 0.00 0.01 0.01 65 1011.5
20260502110506 54 284 0.0 1.7 0.00 0.01 0.01 65 1011.5
20260502110005 54 286 0.9 1.7 0.00 0.01 0.01 65 1011.5
20260502105505 54 294 0.0 1.7 0.00 0.01 0.01 66 1011.5
20260502105005 54 293 0.0 1.7 0.00 0.01 0.01 66 1011.5
20260502104505 54 264 0.9 2.6 0.00 0.01 0.01 65 1011.5
20260502104006 54 288 0.9 2.6 0.00 0.01 0.01 65 1011.5
20260502103506 54 282 0.9 1.7 0.00 0.01 0.01 65 1011.5
20260502103005 54 282 0.9 2.6 0.00 0.01 0.01 65 1011.5
20260502102506 55 281 1.7 2.6 0.00 0.01 0.01 65 1011.5
20260502101505 55 283 0.9 2.6 0.00 0.01 0.01 65 1011.3
20260502101005 55 281 0.9 4.3 0.00 0.01 0.01 65 1010.4
20260502100505 55 294 1.7 5.2 0.00 0.01 0.01 66 1010.4
20260502091505 55 353 1.7 2.6 0.00 0.01 0.01 69 1011.0
20260502091005 55 295 0.9 10.4 0.00 0.01 0.01 70 1011.0
20260502090505 55 280 0.9 2.6 0.00 0.01 0.01 71 1011.0
20260502071005 57 17 0.0 2.6 0.00 0.01 0.01 81 1011.6
20260502070505 57 22 0.9 2.6 0.00 0.01 0.01 81 1011.6
20260502070006 57 20 0.9 2.6 0.00 0.01 0.01 81 1011.6
20260502065505 57 13 1.7 2.6 0.00 0.01 0.01 81 1011.6
20260502064504 57 355 1.7 2.6 0.00 0.01 0.01 82 1011.6
20260502064005 57 32 1.7 2.6 0.00 0.01 0.01 82 1012.0
20260502063504 57 343 0.9 2.6 0.00 0.01 0.01 83 1012.0
20260502063006 57 11 0.9 2.6 0.00 0.01 0.01 83 1012.0
20260502062506 57 350 0.9 2.6 0.01 0.01 0.01 83 1012.0
20260502062005 57 32 0.0 2.6 0.01 0.01 0.01 84 1012.0
20260502061504 57 293 0.9 2.6 0.01 0.01 0.01 84 1012.0
20260502061005 57 268 0.0 0.0 0.01 0.01 0.01 84 1012.0
20260502060006 57 268 0.0 0.0 0.01 0.01 0.01 84 1012.0
20260502055506 57 268 0.0 0.0 0.01 0.01 0.01 84 1012.0
20260502055005 57 265 0.0 0.0 0.01 0.01 0.01 84 1012.1
20260502054505 57 300 0.0 0.0 0.01 0.01 0.01 84 1012.1
20260502053505 58 298 0.0 0.0 0.01 0.01 0.01 84 1012.1
20260502053005 58 298 0.0 0.0 0.01 0.01 0.01 84 1012.1
20260502052505 58 224 0.0 0.0 0.01 0.01 0.01 83 1012.1
20260502052005 58 227 0.0 0.0 0.00 0.00 0.00 83 1012.1
20260502051005 58 144 0.0 0.0 0.00 0.00 0.00 83 1012.1
20260502050505 58 144 0.0 0.0 0.00 0.00 0.00 82 1012.1
20260502050004 58 144 0.0 0.0 0.00 0.00 0.00 82 1012.1
20260502045005 58 144 0.0 0.0 0.00 0.00 0.00 82 1012.1
20260502044505 58 144 0.0 0.0 0.00 0.00 0.00 81 1012.1
20260502044005 58 144 0.0 0.0 0.00 0.00 0.00 81 1012.1
20260502043505 58 144 0.0 0.0 0.00 0.00 0.00 82 1012.1
20260502043006 58 144 0.0 0.0 0.00 0.00 0.00 82 1012.1
20260502041505 58 144 0.0 0.0 0.00 0.00 0.00 82 1012.1
20260502041006 58 130 0.0 0.0 0.00 0.00 0.00 82 1012.1
20260502040506 58 130 0.0 0.0 0.00 0.00 0.00 82 1012.1
20260502040006 58 219 0.0 0.0 0.00 0.00 0.00 82 1012.1
20260502035505 58 219 0.0 0.0 0.00 0.00 0.00 82 1012.1
20260502035005 58 219 0.0 0.0 0.00 0.00 0.00 82 1012.1
20260502034506 59 219 0.0 0.0 0.00 0.00 0.00 82 1012.1
20260502034005 59 219 0.0 0.0 0.00 0.00 0.00 82 1012.1
20260502033505 59 219 0.0 0.0 0.00 0.00 0.00 82 1012.1
20260502033005 59 219 0.0 0.0 0.00 0.00 0.00 82 1012.1
20260502032505 59 219 0.0 0.0 0.00 0.00 0.00 82 1012.1
20260502032006 59 219 0.0 0.0 0.00 0.00 0.00 81 1012.1
20260502031506 59 219 0.0 0.0 0.00 0.00 0.00 81 1012.1
20260502031005 59 219 0.0 0.0 0.00 0.00 0.00 81 1012.1
20260502030505 59 219 0.0 0.0 0.00 0.00 0.00 81 1012.1
20260502025505 59 219 0.0 0.0 0.00 0.00 0.00 81 1012.1
20260502025006 59 219 0.0 0.0 0.00 0.00 0.00 80 1012.1
20260502024005 59 219 0.0 0.0 0.00 0.00 0.00 80 1012.1
20260502023506 60 219 0.0 0.0 0.00 0.00 0.00 80 1012.1
20260502022505 60 219 0.0 0.0 0.00 0.00 0.00 80 1012.1
20260502021505 60 219 0.0 0.0 0.00 0.00 0.00 81 1012.1
20260502021005 60 219 0.0 0.0 0.00 0.00 0.00 81 1012.1
20260502020506 60 216 0.0 0.0 0.00 0.00 0.00 80 1012.1
20260502020004 60 216 0.0 0.0 0.00 0.00 0.00 80 1012.1
20260502015505 60 216 0.0 0.0 0.00 0.00 0.00 80 1012.1
20260502014506 60 300 0.0 0.0 0.00 0.00 0.00 80 1012.1
20260502014005 60 300 0.0 0.0 0.00 0.00 0.00 81 1012.1
20260502013506 60 300 0.0 0.0 0.00 0.00 0.00 81 1012.1
20260502013006 60 300 0.0 0.0 0.00 0.00 0.00 81 1012.1
20260502012506 60 300 0.0 0.0 0.00 0.00 0.00 82 1012.1
20260502012005 60 300 0.0 0.0 0.00 0.00 0.00 82 1012.1
20260502011505 60 300 0.0 0.0 0.00 0.00 0.00 81 1012.1
20260502011004 60 300 0.0 0.0 0.00 0.00 0.00 82 1012.1
20260502010506 60 300 0.0 0.0 0.00 0.00 0.00 81 1012.1
20260502010005 60 300 0.0 0.0 0.00 0.00 0.00 80 1012.0
20260502005505 60 300 0.0 0.0 0.00 0.00 0.00 80 1012.0
20260502004005 61 300 0.0 1.7 0.00 0.00 0.00 79 1012.0
20260502003506 61 300 0.0 1.7 0.00 0.00 0.00 79 1012.0
20260502003005 61 300 0.0 0.9 0.00 0.00 0.00 79 1012.0
20260502002506 61 300 0.0 0.9 0.00 0.00 0.00 79 1012.0
20260502002004 61 300 0.0 0.0 0.00 0.00 0.00 78 1012.0
20260502001504 61 300 0.9 2.6 0.00 0.00 0.00 78 1012.0
20260502001005 62 286 0.0 0.9 0.00 0.00 0.00 78 1011.6
20260502000505 62 286 0.0 1.7 0.00 0.00 0.00 77 1011.6
20260502000006 62 284 0.9 2.6 0.00 0.00 0.00 76 1011.6
20260501235506 62 278 0.9 2.6 0.00 0.00 0.00 75 1011.6
20260501235006 62 299 0.0 0.9 0.00 0.00 0.00 75 1011.6
20260501234505 62 299 0.0 0.9 0.00 0.00 0.00 73 1011.6
20260501234006 63 299 0.0 0.9 0.00 0.00 0.00 73 1011.6
20260501233505 63 299 0.9 1.7 0.00 0.00 0.00 73 1011.6
20260501233006 63 288 0.0 0.9 0.00 0.00 0.00 73 1011.5
20260501232504 63 288 0.0 2.6 0.00 0.00 0.00 72 1011.5
20260501232006 63 296 0.0 0.9 0.00 0.00 0.00 73 1011.5
20260501230005 63 298 0.9 2.6 0.00 0.00 0.00 70 1011.6
20260501225504 64 291 0.9 2.6 0.00 0.00 0.00 70 1011.6
20260501225005 64 270 0.0 1.7 0.00 0.00 0.00 70 1011.1
20260501224504 64 263 0.0 0.9 0.00 0.00 0.00 69 1011.1
20260501224006 64 7 0.0 1.7 0.00 0.00 0.00 70 1011.1
20260501223505 64 26 0.0 1.7 0.00 0.00 0.00 69 1011.1
20260501223005 64 26 0.0 1.7 0.00 0.00 0.00 69 1011.1
20260501222505 64 26 0.0 0.9 0.00 0.00 0.00 68 1011.1
20260501221505 64 31 1.7 2.6 0.00 0.00 0.00 68 1013.0
20260501221006 64 313 0.9 1.7 0.00 0.00 0.00 68 1013.0
20260501220504 64 330 0.0 2.6 0.00 0.00 0.00 69 1013.0
20260501220006 65 32 0.9 1.7 0.00 0.00 0.00 69 1013.0
20260501215006 64 27 0.0 2.6 0.00 0.00 0.00 68 1013.0
20260501214505 65 13 1.7 2.6 0.00 0.00 0.00 69 1013.0
20260501214005 65 355 0.9 2.6 0.00 0.00 0.00 68 1013.0
20260501213505 65 3 0.9 2.6 0.00 0.00 0.00 68 1013.0
20260501213006 65 37 1.7 2.6 0.00 0.00 0.00 67 1013.0
20260501212005 65 332 1.7 4.3 0.00 0.00 0.00 64 1013.0
20260501211505 65 19 0.9 1.7 0.00 0.00 0.00 64 1013.0
20260501211005 65 28 0.0 2.6 0.00 0.00 0.00 65 1013.0
20260501210505 65 25 0.9 2.6 0.00 0.00 0.00 64 1013.0
20260501210006 65 309 0.9 2.6 0.00 0.00 0.00 64 1013.0
20260501205505 65 292 1.7 2.6 0.00 0.00 0.00 63 1013.0
20260501204506 65 266 1.7 5.2 0.00 0.00 0.00 64 1013.0
20260501204005 65 281 1.7 4.3 0.00 0.00 0.00 65 1013.0
20260501203505 65 15 1.7 4.3 0.00 0.00 0.00 66 1013.0
20260501202505 65 288 1.7 4.3 0.00 0.00 0.00 66 1013.0
20260501200504 65 304 0.9 2.6 0.00 0.00 0.00 65 1013.0
20260501200005 65 329 0.9 2.6 0.00 0.00 0.00 65 1012.8
20260501195505 65 307 0.9 2.6 0.00 0.00 0.00 64 1012.8
20260501195005 65 344 0.0 2.6 0.00 0.00 0.00 65 1012.8
20260501194505 65 302 0.0 1.7 0.00 0.00 0.00 66 1012.8
20260501193506 65 311 0.9 1.7 0.00 0.00 0.00 64 1012.8
20260501193005 66 311 0.9 2.6 0.00 0.00 0.00 64 1012.8
20260501192504 65 27 0.0 1.7 0.00 0.00 0.00 66 1012.8
20260501192007 65 36 0.9 2.6 0.00 0.00 0.00 66 1012.8
20260501191505 65 298 0.9 1.7 0.00 0.00 0.00 65 1012.8
20260501191006 65 298 0.9 2.6 0.00 0.00 0.00 65 1012.8
20260501190505 65 15 0.9 2.6 0.00 0.00 0.00 65 1012.8
20260501190005 66 34 0.0 2.6 0.00 0.00 0.00 64 1012.8
20260501185504 66 34 1.7 2.6 0.00 0.00 0.00 65 1012.8
20260501185005 65 34 0.9 2.6 0.00 0.00 0.00 66 1013.1
20260501184505 65 49 0.0 2.6 0.00 0.00 0.00 65 1013.1
20260501184005 66 49 0.9 1.7 0.00 0.00 0.00 65 1013.1
20260501183005 65 17 0.9 2.6 0.00 0.00 0.00 64 1013.1
20260501182505 66 305 0.0 1.7 0.00 0.00 0.00 64 1013.1
20260501182005 65 53 0.0 2.6 0.00 0.00 0.00 64 1013.1
20260501181505 66 274 0.9 1.7 0.00 0.00 0.00 65 1013.1
20260501181004 66 20 0.9 2.6 0.00 0.00 0.00 64 1013.1
20260501180505 65 0 0.0 1.7 0.00 0.00 0.00 64 1013.1
20260501180005 65 278 0.9 2.6 0.00 0.00 0.00 62 1013.1
20260501175505 65 284 0.0 1.7 0.00 0.00 0.00 64 1013.1
20260501175006 65 284 0.9 2.6 0.00 0.00 0.00 62 1013.1
20260501174506 65 298 1.7 2.6 0.00 0.00 0.00 64 1013.1
20260501174005 65 26 0.0 2.6 0.00 0.00 0.00 65 1013.1
20260501173505 64 26 1.7 2.6 0.00 0.00 0.00 63 1013.1
20260501172505 64 325 0.0 1.7 0.00 0.00 0.00 64 1013.1
20260501172005 64 353 0.9 2.6 0.00 0.00 0.00 62 1013.6
20260501171504 65 17 0.0 1.7 0.00 0.00 0.00 64 1013.6
20260501171005 64 17 0.0 1.7 0.00 0.00 0.00 64 1013.6
20260501170505 65 17 0.9 1.7 0.00 0.00 0.00 62 1013.6
20260501170005 65 15 0.9 2.6 0.00 0.00 0.00 62 1013.6
20260501165005 66 47 0.0 2.6 0.00 0.00 0.00 64 1013.6
20260501164504 65 129 0.9 4.3 0.00 0.00 0.00 64 1013.6
20260501163505 64 50 0.0 1.7 0.00 0.00 0.00 66 1013.6
20260501163004 63 164 0.9 1.7 0.00 0.00 0.00 67 1013.6
20260501162505 63 36 0.0 1.7 0.00 0.00 0.00 70 1013.6
20260501162004 63 36 0.9 2.6 0.00 0.00 0.00 69 1013.0
20260501161504 63 333 0.9 1.7 0.00 0.00 0.00 68 1013.0
20260501161006 62 277 0.0 1.7 0.00 0.00 0.00 71 1013.0
20260501160505 62 15 0.0 1.7 0.00 0.00 0.00 71 1013.0
20260501160006 62 15 0.9 0.9 0.00 0.00 0.00 71 1013.0
20260501155505 61 15 0.0 2.6 0.00 0.00 0.00 71 1013.0
20260501154005 61 18 0.0 1.7 0.00 0.00 0.00 72 1013.0